Location: Ferchesar
(52.6477°N, 12.4298°E)
Time: 18:30:03
(UTC+01:00)

Transit 4A - Pass Details

Date: 14 December 2021
Orbit: 864 x 980 km, 66.8° (Epoch: 16 January)

Event Time Altitude Azimuth Distance (km) Brightness Sun altitude
Rises 17:21:46 0° 207° (SSW) 3,469 11.7 -12.1°
Reaches altitude 10° 17:24:14 10° 205° (SSW) 2,547 10.9 -12.4°
Maximum altitude 17:30:05 69° 124° (SE) 970 7.9 -13.2°
Enters shadow 17:35:02 16° 44° (NE) 2,228 9.4 -13.9°
